Time,TemperatureF,DewpointF,PressureIn,WindDirection,WindDirectionDegrees,WindSpeedMPH,WindSpeedGustMPH,Humidity,HourlyPrecipIn,Conditions,Clouds,dailyrainin,SoftwareType,DateUTC
2013-09-07 00:00:00,63.7,62.8,30.09,North,11,0.0,0.0,97,0.00,,,0.00,Wunderground v.1.15,2013-09-07 04:00:00,
2013-09-07 00:05:00,63.6,62.7,30.09,North,11,0.0,0.0,97,0.00,,,0.00,Wunderground v.1.15,2013-09-07 04:05:00,
2013-09-07 00:10:00,63.5,62.6,30.09,North,11,0.0,0.0,97,0.00,,,0.00,Wunderground v.1.15,2013-09-07 04:10:00,
2013-09-07 00:15:00,63.4,62.2,30.09,North,11,0.0,0.0,96,0.00,,,0.00,Wunderground v.1.15,2013-09-07 04:15:00,
2013-09-07 00:20:00,63.3,62.1,30.09,North,11,0.0,0.0,96,0.00,,,0.00,Wunderground v.1.15,2013-09-07 04:20:00,
2013-09-07 00:25:00,63.2,62.3,30.09,North,11,0.0,0.0,97,0.00,,,0.00,Wunderground v.1.15,2013-09-07 04:25:00,
2013-09-07 00:35:00,63.1,62.2,30.09,North,11,0.0,0.0,97,0.00,,,0.00,Wunderground v.1.15,2013-09-07 04:35:00,
2013-09-07 01:15:00,62.6,61.7,30.09,North,11,0.0,0.0,97,0.00,,,0.00,Wunderground v.1.15,2013-09-07 05:15:00,
2013-09-07 01:20:00,62.5,61.6,30.09,North,11,0.0,0.0,97,0.00,,,0.00,Wunderground v.1.15,2013-09-07 05:20:00,
2013-09-07 01:25:00,62.4,61.5,30.09,North,11,0.0,0.0,97,0.00,,,0.00,Wunderground v.1.15,2013-09-07 05:25:00,
2013-09-07 01:30:00,62.5,61.9,30.09,North,11,0.0,0.0,98,0.00,,,0.00,Wunderground v.1.15,2013-09-07 05:30:00,
2013-09-07 01:40:00,62.5,61.9,30.09,North,11,0.0,0.0,98,0.00,,,0.00,Wunderground v.1.15,2013-09-07 05:40:00,
2013-09-07 01:45:00,62.5,61.9,30.09,North,11,0.0,0.0,98,0.00,,,0.00,Wunderground v.1.15,2013-09-07 05:45:00,
2013-09-07 01:50:00,62.5,61.9,30.09,North,11,0.0,0.0,98,0.00,,,0.00,Wunderground v.1.15,2013-09-07 05:50:00,
2013-09-07 02:00:00,62.2,61.6,30.08,North,11,0.0,0.0,98,0.00,,,0.00,Wunderground v.1.15,2013-09-07 06:00:00,
2013-09-07 02:05:00,62.1,61.5,30.08,North,11,0.0,0.0,98,0.00,,,0.00,Wunderground v.1.15,2013-09-07 06:05:00,
2013-09-07 02:15:00,62.0,61.4,30.08,North,11,0.0,0.0,98,0.00,,,0.00,Wunderground v.1.15,2013-09-07 06:15:00,
2013-09-07 02:20:00,61.9,61.3,30.08,North,11,0.0,0.0,98,0.00,,,0.00,Wunderground v.1.15,2013-09-07 06:20:00,
2013-09-07 02:25:00,61.8,61.2,30.08,North,11,0.0,0.0,98,0.00,,,0.00,Wunderground v.1.15,2013-09-07 06:25:00,
2013-09-07 02:35:00,61.6,61.0,30.08,North,11,0.0,0.0,98,0.00,,,0.00,Wunderground v.1.15,2013-09-07 06:35:00,
2013-09-07 02:40:00,61.4,60.5,30.08,North,11,0.0,0.0,97,0.00,,,0.00,Wunderground v.1.15,2013-09-07 06:40:00,
2013-09-07 02:45:00,61.2,60.3,30.08,North,11,0.0,0.0,97,0.00,,,0.00,Wunderground v.1.15,2013-09-07 06:45:00,
2013-09-07 02:55:00,60.9,60.0,30.07,North,11,0.0,0.0,97,0.00,,,0.00,Wunderground v.1.15,2013-09-07 06:55:00,
2013-09-07 03:00:00,60.7,59.8,30.07,North,11,0.0,0.0,97,0.00,,,0.00,Wunderground v.1.15,2013-09-07 07:00:00,
2013-09-07 03:05:00,60.6,59.7,30.07,North,11,0.0,0.0,97,0.00,,,0.00,Wunderground v.1.15,2013-09-07 07:05:00,
2013-09-07 03:15:00,60.5,59.9,30.07,North,11,0.0,0.0,98,0.00,,,0.00,Wunderground v.1.15,2013-09-07 07:15:00,
2013-09-07 03:20:00,60.4,59.8,30.07,North,11,0.0,0.0,98,0.00,,,0.00,Wunderground v.1.15,2013-09-07 07:20:00,
2013-09-07 03:25:00,60.3,59.4,30.07,North,11,0.0,0.0,97,0.00,,,0.00,Wunderground v.1.15,2013-09-07 07:25:00,
2013-09-07 03:35:00,60.1,59.5,30.07,North,11,0.0,0.0,98,0.00,,,0.00,Wunderground v.1.15,2013-09-07 07:35:00,
2013-09-07 03:40:00,60.0,59.4,30.07,North,11,0.0,0.0,98,0.00,,,0.00,Wunderground v.1.15,2013-09-07 07:40:00,
2013-09-07 03:45:00,60.0,59.4,30.07,North,11,0.0,0.0,98,0.00,,,0.00,Wunderground v.1.15,2013-09-07 07:45:00,
2013-09-07 03:55:00,59.8,59.2,30.07,North,11,0.0,0.0,98,0.00,,,0.00,Wunderground v.1.15,2013-09-07 07:55:00,
2013-09-07 04:00:00,59.7,59.1,30.08,North,11,0.0,0.0,98,0.00,,,0.00,Wunderground v.1.15,2013-09-07 08:00:00,
2013-09-07 04:05:00,59.7,59.1,30.07,North,11,0.0,0.0,98,0.00,,,0.00,Wunderground v.1.15,2013-09-07 08:05:00,
2013-09-07 04:15:00,59.6,59.0,30.08,North,11,0.0,0.0,98,0.00,,,0.00,Wunderground v.1.15,2013-09-07 08:15:00,
2013-09-07 04:20:00,59.5,58.9,30.08,North,11,0.0,0.0,98,0.00,,,0.00,Wunderground v.1.15,2013-09-07 08:20:00,
2013-09-07 04:25:00,59.5,58.9,30.08,North,11,0.0,0.0,98,0.00,,,0.00,Wunderground v.1.15,2013-09-07 08:25:00,
2013-09-07 04:35:00,59.4,58.8,30.08,North,11,0.0,0.0,98,0.00,,,0.00,Wunderground v.1.15,2013-09-07 08:35:00,
2013-09-07 04:40:00,59.2,58.6,30.08,North,11,0.0,0.0,98,0.00,,,0.00,Wunderground v.1.15,2013-09-07 08:40:00,
2013-09-07 04:45:00,59.1,58.5,30.08,North,11,0.0,0.0,98,0.00,,,0.00,Wunderground v.1.15,2013-09-07 08:45:00,
2013-09-07 04:55:00,58.9,58.3,30.08,North,11,0.0,0.0,98,0.00,,,0.00,Wunderground v.1.15,2013-09-07 08:55:00,
2013-09-07 05:00:00,58.8,58.2,30.08,North,11,0.0,0.0,98,0.00,,,0.00,Wunderground v.1.15,2013-09-07 09:00:00,
2013-09-07 05:05:00,58.7,58.1,30.08,North,11,0.0,0.0,98,0.00,,,0.00,Wunderground v.1.15,2013-09-07 09:05:00,
2013-09-07 05:15:00,58.6,58.0,30.08,North,11,0.0,0.0,98,0.00,,,0.00,Wunderground v.1.15,2013-09-07 09:15:00,
2013-09-07 05:20:00,58.4,57.8,30.07,North,11,0.0,0.0,98,0.00,,,0.00,Wunderground v.1.15,2013-09-07 09:20:00,
2013-09-07 05:25:00,58.3,57.7,30.08,North,11,0.0,0.0,98,0.00,,,0.00,Wunderground v.1.15,2013-09-07 09:25:00,
2013-09-07 05:35:00,58.1,57.5,30.08,North,11,0.0,0.0,98,0.00,,,0.00,Wunderground v.1.15,2013-09-07 09:35:00,
2013-09-07 05:40:00,58.0,57.4,30.08,North,11,0.0,0.0,98,0.00,,,0.00,Wunderground v.1.15,2013-09-07 09:40:00,
2013-09-07 05:45:00,58.0,57.4,30.08,North,11,0.0,0.0,98,0.00,,,0.00,Wunderground v.1.15,2013-09-07 09:45:00,
2013-09-07 05:55:00,57.8,57.2,30.08,North,11,0.0,0.0,98,0.00,,,0.00,Wunderground v.1.15,2013-09-07 09:55:00,
2013-09-07 06:00:00,57.8,57.2,30.08,North,11,0.0,0.0,98,0.00,,,0.00,Wunderground v.1.15,2013-09-07 10:00:00,
2013-09-07 06:05:00,57.8,57.2,30.08,North,11,0.0,0.0,98,0.00,,,0.00,Wunderground v.1.15,2013-09-07 10:05:00,
2013-09-07 06:15:00,57.7,57.1,30.08,North,11,0.0,0.0,98,0.00,,,0.00,Wunderground v.1.15,2013-09-07 10:15:00,
2013-09-07 06:20:00,57.7,57.1,30.08,North,11,0.0,0.0,98,0.00,,,0.00,Wunderground v.1.15,2013-09-07 10:20:00,
2013-09-07 06:30:00,57.6,57.0,30.08,North,11,0.0,0.0,98,0.00,,,0.00,Wunderground v.1.15,2013-09-07 10:30:00,
2013-09-07 06:35:00,57.7,57.4,30.09,North,11,0.0,0.0,99,0.00,,,0.00,Wunderground v.1.15,2013-09-07 10:35:00,
2013-09-07 06:40:00,57.6,57.3,30.09,North,11,0.0,0.0,99,0.00,,,0.00,Wunderground v.1.15,2013-09-07 10:40:00,
2013-09-07 06:45:00,57.5,57.2,30.09,North,11,0.0,0.0,99,0.00,,,0.00,Wunderground v.1.15,2013-09-07 10:45:00,
2013-09-07 06:55:00,57.3,56.7,30.09,North,11,0.0,0.0,98,0.00,,,0.00,Wunderground v.1.15,2013-09-07 10:55:00,
2013-09-07 07:00:00,57.3,56.7,30.09,North,11,0.0,0.0,98,0.00,,,0.00,Wunderground v.1.15,2013-09-07 11:00:00,
2013-09-07 07:10:00,57.4,57.1,30.09,North,11,0.0,0.0,99,0.00,,,0.00,Wunderground v.1.15,2013-09-07 11:10:00,
2013-09-07 07:15:00,57.4,57.1,30.09,North,11,0.0,0.0,99,0.00,,,0.00,Wunderground v.1.15,2013-09-07 11:15:00,
2013-09-07 07:20:00,57.3,57.0,30.10,North,11,0.0,0.0,99,0.00,,,0.00,Wunderground v.1.15,2013-09-07 11:20:00,
2013-09-07 07:25:00,57.3,57.0,30.10,North,11,0.0,0.0,99,0.00,,,0.00,Wunderground v.1.15,2013-09-07 11:25:00,
2013-09-07 07:35:00,57.4,57.1,30.10,North,11,0.0,0.0,99,0.00,,,0.00,Wunderground v.1.15,2013-09-07 11:35:00,
2013-09-07 07:40:00,57.5,57.2,30.10,North,11,0.0,0.0,99,0.00,,,0.00,Wunderground v.1.15,2013-09-07 11:40:00,
2013-09-07 07:50:00,57.5,57.2,30.10,North,11,0.0,0.0,99,0.00,,,0.00,Wunderground v.1.15,2013-09-07 11:50:00,
2013-09-07 07:55:00,57.6,57.3,30.10,North,11,0.0,0.0,99,0.00,,,0.00,Wunderground v.1.15,2013-09-07 11:55:00,
2013-09-07 08:00:00,57.8,57.5,30.10,North,11,0.0,0.0,99,0.00,,,0.00,Wunderground v.1.15,2013-09-07 12:00:00,
2013-09-07 08:05:00,58.0,57.7,30.10,North,11,0.0,0.0,99,0.00,,,0.00,Wunderground v.1.15,2013-09-07 12:05:00,
2013-09-07 08:15:00,58.6,58.6,30.10,North,11,0.0,0.0,100,0.00,,,0.00,Wunderground v.1.15,2013-09-07 12:15:00,
2013-09-07 08:20:00,59.1,59.1,30.10,North,11,0.0,0.0,100,0.00,,,0.00,Wunderground v.1.15,2013-09-07 12:20:00,
2013-09-07 08:30:00,59.7,59.7,30.10,North,11,0.0,0.0,100,0.00,,,0.00,Wunderground v.1.15,2013-09-07 12:30:00,
2013-09-07 08:35:00,60.0,60.0,30.10,North,11,0.0,0.0,100,0.00,,,0.00,Wunderground v.1.15,2013-09-07 12:35:00,
2013-09-07 08:40:00,60.5,60.5,30.10,North,11,0.0,0.0,100,0.00,,,0.00,Wunderground v.1.15,2013-09-07 12:40:00,
2013-09-07 08:50:00,61.1,61.1,30.09,North,11,0.0,0.0,100,0.00,,,0.00,Wunderground v.1.15,2013-09-07 12:50:00,
2013-09-07 09:25:00,62.9,62.9,30.09,North,11,0.0,0.0,100,0.00,,,0.00,Wunderground v.1.15,2013-09-07 13:25:00,
2013-09-07 09:30:00,63.2,63.2,30.09,North,11,0.0,0.0,100,0.00,,,0.00,Wunderground v.1.15,2013-09-07 13:30:00,
2013-09-07 09:40:00,63.9,63.3,30.09,North,11,0.0,0.0,98,0.00,,,0.00,Wunderground v.1.15,2013-09-07 13:40:00,
2013-09-07 09:45:00,64.3,63.4,30.09,North,11,0.0,0.0,97,0.00,,,0.00,Wunderground v.1.15,2013-09-07 13:45:00,
2013-09-07 09:50:00,64.7,64.1,30.09,North,11,0.0,0.0,98,0.00,,,0.00,Wunderground v.1.15,2013-09-07 13:50:00,
2013-09-07 10:00:00,65.4,63.9,30.09,North,11,0.0,0.0,95,0.00,,,0.00,Wunderground v.1.15,2013-09-07 14:00:00,
2013-09-07 10:05:00,65.6,63.8,30.09,NNW,346,0.0,0.0,94,0.00,,,0.00,Wunderground v.1.15,2013-09-07 14:05:00,
2013-09-07 10:10:00,66.2,64.1,30.09,North,5,0.0,0.0,93,0.00,,,0.00,Wunderground v.1.15,2013-09-07 14:10:00,
2013-09-07 10:20:00,67.0,64.0,30.09,NNW,346,0.0,1.0,90,0.00,,,0.00,Wunderground v.1.15,2013-09-07 14:20:00,
2013-09-07 10:25:00,67.4,64.4,30.08,NNW,346,0.0,1.0,90,0.00,,,0.00,Wunderground v.1.15,2013-09-07 14:25:00,
2013-09-07 10:30:00,67.6,63.9,30.09,NNW,346,0.0,0.0,88,0.00,,,0.00,Wunderground v.1.15,2013-09-07 14:30:00,
2013-09-07 10:40:00,68.5,64.5,30.09,NNW,346,0.0,1.0,87,0.00,,,0.00,Wunderground v.1.15,2013-09-07 14:40:00,
2013-09-07 10:45:00,69.0,65.0,30.09,NNW,346,0.0,1.0,87,0.00,,,0.00,Wunderground v.1.15,2013-09-07 14:45:00,
2013-09-07 10:50:00,69.4,64.4,30.09,NNW,346,0.0,0.0,84,0.00,,,0.00,Wunderground v.1.15,2013-09-07 14:50:00,
2013-09-07 11:00:00,70.1,64.7,30.09,NNE,17,0.0,1.0,83,0.00,,,0.00,Wunderground v.1.15,2013-09-07 15:00:00,
2013-09-07 11:05:00,70.7,64.6,30.09,NNE,17,1.0,1.0,81,0.00,,,0.00,Wunderground v.1.15,2013-09-07 15:05:00,
2013-09-07 11:10:00,71.1,63.5,30.09,NNE,17,0.0,0.0,77,0.00,,,0.00,Wunderground v.1.15,2013-09-07 15:10:00,
2013-09-07 11:20:00,72.2,65.7,30.09,NNE,17,0.0,0.0,80,0.00,,,0.00,Wunderground v.1.15,2013-09-07 15:20:00,
2013-09-07 11:25:00,72.6,65.7,30.08,NNE,17,0.0,0.0,79,0.00,,,0.00,Wunderground v.1.15,2013-09-07 15:25:00,
2013-09-07 11:35:00,73.4,64.2,30.08,SE,140,1.0,2.0,73,0.00,,,0.00,Wunderground v.1.15,2013-09-07 15:35:00,
2013-09-07 11:40:00,74.2,63.4,30.08,SSE,155,1.0,1.0,69,0.00,,,0.00,Wunderground v.1.15,2013-09-07 15:40:00,
2013-09-07 11:45:00,74.8,64.4,30.08,ESE,103,1.0,1.0,70,0.00,,,0.00,Wunderground v.1.15,2013-09-07 15:45:00,
2013-09-07 11:55:00,75.8,65.3,30.07,ESE,103,0.0,1.0,70,0.00,,,0.00,Wunderground v.1.15,2013-09-07 15:55:00,
2013-09-07 12:00:00,76.3,65.8,30.07,ESE,103,0.0,0.0,70,0.00,,,0.00,Wunderground v.1.15,2013-09-07 16:00:00,
2013-09-07 12:10:00,76.5,66.4,30.06,ESE,103,0.0,0.0,71,0.00,,,0.00,Wunderground v.1.15,2013-09-07 16:10:00,
2013-09-07 12:15:00,76.3,65.4,30.06,ESE,103,0.0,0.0,69,0.00,,,0.00,Wunderground v.1.15,2013-09-07 16:15:00,
2013-09-07 12:20:00,76.6,67.3,30.06,ESE,103,0.0,0.0,73,0.00,,,0.00,Wunderground v.1.15,2013-09-07 16:20:00,
2013-09-07 12:30:00,77.1,66.1,30.06,NE,42,1.0,1.0,69,0.00,,,0.00,Wunderground v.1.15,2013-09-07 16:30:00,
2013-09-07 12:35:00,77.7,66.7,30.05,NE,42,0.0,1.0,69,0.00,,,0.00,Wunderground v.1.15,2013-09-07 16:35:00,
2013-09-07 12:45:00,78.8,65.6,30.05,NE,42,1.0,1.0,64,0.00,,,0.00,Wunderground v.1.15,2013-09-07 16:45:00,
2013-09-07 12:50:00,79.1,66.3,30.05,NE,46,1.0,1.0,65,0.00,,,0.00,Wunderground v.1.15,2013-09-07 16:50:00,
2013-09-07 12:55:00,79.2,66.9,30.05,NE,46,1.0,1.0,66,0.00,,,0.00,Wunderground v.1.15,2013-09-07 16:55:00,
2013-09-07 13:00:00,78.9,67.9,30.05,NE,46,0.0,1.0,69,0.00,,,0.00,Wunderground v.1.15,2013-09-07 17:00:00,
2013-09-07 13:10:00,78.8,69.4,30.05,NE,46,0.0,1.0,73,0.00,,,0.00,Wunderground v.1.15,2013-09-07 17:10:00,
2013-09-07 13:20:00,78.6,65.8,30.04,NE,46,0.0,0.0,65,0.00,,,0.00,Wunderground v.1.15,2013-09-07 17:20:00,
2013-09-07 13:25:00,78.5,66.6,30.04,NE,46,0.0,1.0,67,0.00,,,0.00,Wunderground v.1.15,2013-09-07 17:25:00,
2013-09-07 13:35:00,79.1,63.5,30.03,North,5,1.0,3.0,59,0.00,,,0.00,Wunderground v.1.15,2013-09-07 17:35:00,
2013-09-07 13:40:00,79.3,63.7,30.03,North,360,1.0,1.0,59,0.00,,,0.00,Wunderground v.1.15,2013-09-07 17:40:00,
2013-09-07 13:45:00,79.5,64.4,30.03,North,5,1.0,1.0,60,0.00,,,0.00,Wunderground v.1.15,2013-09-07 17:45:00,
2013-09-07 13:55:00,79.7,64.6,30.03,NNW,329,0.0,1.0,60,0.00,,,0.00,Wunderground v.1.15,2013-09-07 17:55:00,
2013-09-07 14:00:00,80.0,65.3,30.02,West,267,1.0,1.0,61,0.00,,,0.00,Wunderground v.1.15,2013-09-07 18:00:00,
2013-09-07 14:05:00,80.1,65.0,30.02,SE,126,1.0,1.0,60,0.00,,,0.00,Wunderground v.1.15,2013-09-07 18:05:00,
2013-09-07 14:15:00,79.3,65.1,30.02,NE,36,1.0,1.0,62,0.00,,,0.00,Wunderground v.1.15,2013-09-07 18:15:00,
2013-09-07 14:20:00,78.4,66.5,30.01,NE,35,1.0,1.0,67,0.00,,,0.00,Wunderground v.1.15,2013-09-07 18:20:00,
2013-09-07 14:25:00,78.1,66.2,30.01,NE,35,0.0,1.0,67,0.00,,,0.00,Wunderground v.1.15,2013-09-07 18:25:00,
2013-09-07 14:35:00,79.4,67.5,30.01,West,281,1.0,2.0,67,0.00,,,0.00,Wunderground v.1.15,2013-09-07 18:35:00,
2013-09-07 14:40:00,80.1,66.4,30.01,SSE,167,1.0,1.0,63,0.00,,,0.00,Wunderground v.1.15,2013-09-07 18:40:00,
2013-09-07 14:45:00,80.2,66.5,30.00,ESE,109,1.0,1.0,63,0.00,,,0.00,Wunderground v.1.15,2013-09-07 18:45:00,
2013-09-07 14:55:00,79.2,66.9,30.00,SE,144,0.0,0.0,66,0.00,,,0.00,Wunderground v.1.15,2013-09-07 18:55:00,
2013-09-07 15:00:00,78.7,65.0,30.00,SE,138,0.0,0.0,63,0.00,,,0.00,Wunderground v.1.15,2013-09-07 19:00:00,
2013-09-07 15:05:00,77.8,66.4,30.00,SE,138,0.0,0.0,68,0.00,,,0.00,Wunderground v.1.15,2013-09-07 19:05:00,
2013-09-07 15:15:00,76.9,69.5,29.99,SE,138,0.0,1.0,78,0.00,,,0.00,Wunderground v.1.15,2013-09-07 19:15:00,
2013-09-07 15:20:00,77.1,64.9,29.99,NE,36,0.0,0.0,66,0.00,,,0.00,Wunderground v.1.15,2013-09-07 19:20:00,
2013-09-07 15:30:00,78.3,69.3,29.98,NE,36,0.0,0.0,74,0.00,,,0.00,Wunderground v.1.15,2013-09-07 19:30:00,
2013-09-07 15:35:00,78.8,68.6,29.99,ESE,113,0.0,0.0,71,0.00,,,0.00,Wunderground v.1.15,2013-09-07 19:35:00,
2013-09-07 15:40:00,79.1,69.3,29.98,ESE,105,1.0,1.0,72,0.00,,,0.00,Wunderground v.1.15,2013-09-07 19:40:00,
2013-09-07 15:45:00,79.2,65.5,29.98,ESE,105,1.0,1.0,63,0.00,,,0.00,Wunderground v.1.15,2013-09-07 19:45:00,
2013-09-07 15:55:00,80.6,67.7,29.97,NNE,32,1.0,1.0,65,0.00,,,0.00,Wunderground v.1.15,2013-09-07 19:55:00,
2013-09-07 16:00:00,80.5,68.1,29.97,NNE,32,1.0,1.0,66,0.00,,,0.00,Wunderground v.1.15,2013-09-07 20:00:00,
2013-09-07 16:05:00,80.5,68.1,29.97,NE,34,0.0,1.0,66,0.00,,,0.00,Wunderground v.1.15,2013-09-07 20:05:00,
2013-09-07 16:15:00,80.0,67.6,29.96,NE,34,0.0,1.0,66,0.00,,,0.00,Wunderground v.1.15,2013-09-07 20:15:00,
2013-09-07 16:20:00,80.0,65.8,29.96,NE,42,1.0,1.0,62,0.00,,,0.00,Wunderground v.1.15,2013-09-07 20:20:00,
2013-09-07 16:30:00,80.1,66.8,29.96,East,93,1.0,1.0,64,0.00,,,0.00,Wunderground v.1.15,2013-09-07 20:30:00,
2013-09-07 16:35:00,80.2,66.9,29.96,NE,38,1.0,1.0,64,0.00,,,0.00,Wunderground v.1.15,2013-09-07 20:35:00,
2013-09-07 16:40:00,80.2,67.8,29.96,East,93,1.0,1.0,66,0.00,,,0.00,Wunderground v.1.15,2013-09-07 20:40:00,
2013-09-07 16:45:00,80.2,66.0,29.96,East,92,0.0,1.0,62,0.00,,,0.00,Wunderground v.1.15,2013-09-07 20:45:00,
2013-09-07 16:55:00,80.1,67.7,29.96,SSW,208,1.0,1.0,66,0.00,,,0.00,Wunderground v.1.15,2013-09-07 20:55:00,
2013-09-07 17:00:00,79.8,69.1,29.96,ESE,110,1.0,1.0,70,0.00,,,0.00,Wunderground v.1.15,2013-09-07 21:00:00,
2013-09-07 17:10:00,79.8,66.1,29.96,NE,51,0.0,0.0,63,0.00,,,0.00,Wunderground v.1.15,2013-09-07 21:10:00,
2013-09-07 17:15:00,80.0,67.2,29.95,NE,52,1.0,2.0,65,0.00,,,0.00,Wunderground v.1.15,2013-09-07 21:15:00,
2013-09-07 17:20:00,79.6,69.0,29.96,NE,52,0.0,0.0,70,0.00,,,0.00,Wunderground v.1.15,2013-09-07 21:20:00,
2013-09-07 17:25:00,79.2,67.3,29.95,NE,52,0.0,0.0,67,0.00,,,0.00,Wunderground v.1.15,2013-09-07 21:25:00,
2013-09-07 17:35:00,79.1,68.9,29.95,NE,52,0.0,1.0,71,0.00,,,0.00,Wunderground v.1.15,2013-09-07 21:35:00,
2013-09-07 17:40:00,78.9,67.0,29.95,North,5,0.0,0.0,67,0.00,,,0.00,Wunderground v.1.15,2013-09-07 21:40:00,
2013-09-07 17:50:00,78.4,67.0,29.95,NNE,15,0.0,1.0,68,0.00,,,0.00,Wunderground v.1.15,2013-09-07 21:50:00,
2013-09-07 17:55:00,78.1,69.5,29.95,NNE,17,0.0,1.0,75,0.00,,,0.00,Wunderground v.1.15,2013-09-07 21:55:00,
2013-09-07 18:00:00,77.6,69.4,29.95,NNE,17,0.0,0.0,76,0.00,,,0.00,Wunderground v.1.15,2013-09-07 22:00:00,
2013-09-07 18:05:00,77.2,69.4,29.95,NNE,17,0.0,0.0,77,0.00,,,0.00,Wunderground v.1.15,2013-09-07 22:05:00,
2013-09-07 18:15:00,76.5,69.9,29.94,NNE,17,0.0,0.0,80,0.00,,,0.00,Wunderground v.1.15,2013-09-07 22:15:00,
2013-09-07 18:20:00,76.3,69.7,29.94,NNE,17,0.0,0.0,80,0.00,,,0.00,Wunderground v.1.15,2013-09-07 22:20:00,
2013-09-07 18:30:00,75.7,69.5,29.94,NNE,17,0.0,0.0,81,0.00,,,0.00,Wunderground v.1.15,2013-09-07 22:30:00,
2013-09-07 18:35:00,75.5,69.6,29.94,NNE,17,0.0,0.0,82,0.00,,,0.00,Wunderground v.1.15,2013-09-07 22:35:00,
2013-09-07 18:40:00,75.3,69.4,29.94,NNE,17,0.0,0.0,82,0.00,,,0.00,Wunderground v.1.15,2013-09-07 22:40:00,
2013-09-07 18:50:00,74.8,69.6,29.94,NNE,17,0.0,0.0,84,0.00,,,0.00,Wunderground v.1.15,2013-09-07 22:50:00,
2013-09-07 18:55:00,74.5,69.3,29.94,NNE,17,0.0,0.0,84,0.00,,,0.00,Wunderground v.1.15,2013-09-07 22:55:00,
2013-09-07 19:00:00,74.2,69.4,29.94,NNE,17,0.0,0.0,85,0.00,,,0.00,Wunderground v.1.15,2013-09-07 23:00:00,
2013-09-07 19:10:00,73.7,69.6,29.94,NNE,17,0.0,0.0,87,0.00,,,0.00,Wunderground v.1.15,2013-09-07 23:10:00,
2013-09-07 19:15:00,73.4,69.6,29.94,NNE,17,0.0,0.0,88,0.00,,,0.00,Wunderground v.1.15,2013-09-07 23:15:00,
2013-09-07 19:20:00,73.2,69.4,29.94,NNE,17,0.0,0.0,88,0.00,,,0.00,Wunderground v.1.15,2013-09-07 23:20:00,
2013-09-07 19:30:00,72.7,69.3,29.95,NNE,17,0.0,0.0,89,0.00,,,0.00,Wunderground v.1.15,2013-09-07 23:30:00,
2013-09-07 19:35:00,72.4,69.3,29.95,NNE,17,0.0,0.0,90,0.00,,,0.00,Wunderground v.1.15,2013-09-07 23:35:00,
2013-09-07 19:40:00,72.1,69.3,29.94,NNE,17,0.0,0.0,91,0.00,,,0.00,Wunderground v.1.15,2013-09-07 23:40:00,
2013-09-07 19:50:00,71.6,68.8,29.95,NNE,17,0.0,0.0,91,0.00,,,0.00,Wunderground v.1.15,2013-09-07 23:50:00,
2013-09-07 19:55:00,71.3,68.5,29.95,NNE,17,0.0,0.0,91,0.00,,,0.00,Wunderground v.1.15,2013-09-07 23:55:00,
2013-09-07 20:00:00,71.1,68.3,29.95,NNE,17,0.0,0.0,91,0.00,,,0.00,Wunderground v.1.15,2013-09-08 00:00:00,
2013-09-07 20:10:00,70.5,68.1,29.95,NNE,17,0.0,0.0,92,0.00,,,0.00,Wunderground v.1.15,2013-09-08 00:10:00,
2013-09-07 20:15:00,70.2,67.8,29.95,NNE,17,0.0,0.0,92,0.00,,,0.00,Wunderground v.1.15,2013-09-08 00:15:00,
2013-09-07 20:25:00,69.7,67.3,29.95,NNE,17,0.0,0.0,92,0.00,,,0.00,Wunderground v.1.15,2013-09-08 00:25:00,
2013-09-07 20:30:00,69.5,67.4,29.95,NNE,17,0.0,0.0,93,0.00,,,0.00,Wunderground v.1.15,2013-09-08 00:30:00,
2013-09-07 20:35:00,69.3,67.5,29.95,NNE,17,0.0,0.0,94,0.00,,,0.00,Wunderground v.1.15,2013-09-08 00:35:00,
2013-09-07 20:40:00,69.0,66.9,29.95,NNE,17,0.0,0.0,93,0.00,,,0.00,Wunderground v.1.15,2013-09-08 00:40:00,
2013-09-07 20:50:00,68.6,66.5,29.96,NNE,17,0.0,0.0,93,0.00,,,0.00,Wunderground v.1.15,2013-09-08 00:50:00,
2013-09-07 21:00:00,68.3,66.5,29.95,NNE,17,0.0,0.0,94,0.00,,,0.00,Wunderground v.1.15,2013-09-08 01:00:00,
2013-09-07 21:05:00,68.1,66.3,29.96,NNE,17,0.0,0.0,94,0.00,,,0.00,Wunderground v.1.15,2013-09-08 01:05:00,
2013-09-07 21:10:00,68.0,66.2,29.96,NNE,17,0.0,0.0,94,0.00,,,0.00,Wunderground v.1.15,2013-09-08 01:10:00,
2013-09-07 21:15:00,67.9,66.4,29.96,NNE,17,0.0,0.0,95,0.00,,,0.00,Wunderground v.1.15,2013-09-08 01:15:00,
2013-09-07 21:25:00,67.6,66.4,29.96,NNE,17,0.0,0.0,96,0.00,,,0.00,Wunderground v.1.15,2013-09-08 01:25:00,
2013-09-07 21:30:00,67.5,66.0,29.96,NNE,17,0.0,0.0,95,0.00,,,0.00,Wunderground v.1.15,2013-09-08 01:30:00,
2013-09-07 21:40:00,67.2,65.7,29.96,NNE,17,0.0,0.0,95,0.00,,,0.00,Wunderground v.1.15,2013-09-08 01:40:00,
2013-09-07 21:45:00,67.1,65.9,29.96,NNE,17,0.0,0.0,96,0.00,,,0.00,Wunderground v.1.15,2013-09-08 01:45:00,
2013-09-07 21:50:00,67.0,65.8,29.96,NNE,17,0.0,0.0,96,0.00,,,0.00,Wunderground v.1.15,2013-09-08 01:50:00,
2013-09-07 22:00:00,66.8,65.6,29.96,NNE,17,0.0,0.0,96,0.00,,,0.00,Wunderground v.1.15,2013-09-08 02:00:00,
2013-09-07 22:05:00,66.7,65.5,29.96,NNE,17,0.0,0.0,96,0.00,,,0.00,Wunderground v.1.15,2013-09-08 02:05:00,
2013-09-07 22:10:00,66.6,65.7,29.96,NNE,17,0.0,0.0,97,0.00,,,0.00,Wunderground v.1.15,2013-09-08 02:10:00,
2013-09-07 22:20:00,66.3,65.4,29.96,NNE,17,0.0,0.0,97,0.00,,,0.00,Wunderground v.1.15,2013-09-08 02:20:00,
2013-09-07 22:25:00,66.2,65.0,29.96,NNE,17,0.0,0.0,96,0.00,,,0.00,Wunderground v.1.15,2013-09-08 02:25:00,
2013-09-07 22:35:00,65.9,65.0,29.95,NNE,17,0.0,0.0,97,0.00,,,0.00,Wunderground v.1.15,2013-09-08 02:35:00,
2013-09-07 22:40:00,65.8,64.6,29.95,NNE,17,0.0,0.0,96,0.00,,,0.00,Wunderground v.1.15,2013-09-08 02:40:00,
2013-09-07 22:50:00,65.6,64.7,29.95,NNE,17,0.0,0.0,97,0.00,,,0.00,Wunderground v.1.15,2013-09-08 02:50:00,
2013-09-07 22:55:00,65.5,64.6,29.95,NNE,17,0.0,0.0,97,0.00,,,0.00,Wunderground v.1.15,2013-09-08 02:55:00,
2013-09-07 23:00:00,65.4,64.5,29.95,NNE,17,0.0,0.0,97,0.00,,,0.00,Wunderground v.1.15,2013-09-08 03:00:00,
2013-09-07 23:05:00,65.3,64.4,29.95,NNE,17,0.0,0.0,97,0.00,,,0.00,Wunderground v.1.15,2013-09-08 03:05:00,
2013-09-07 23:15:00,65.1,64.2,29.95,NNE,17,0.0,0.0,97,0.00,,,0.00,Wunderground v.1.15,2013-09-08 03:15:00,
2013-09-07 23:20:00,65.0,64.1,29.95,NNE,17,0.0,0.0,97,0.00,,,0.00,Wunderground v.1.15,2013-09-08 03:20:00,
2013-09-07 23:30:00,64.9,64.0,29.95,NNE,17,0.0,0.0,97,0.00,,,0.00,Wunderground v.1.15,2013-09-08 03:30:00,
2013-09-07 23:35:00,64.8,63.9,29.95,NNE,17,0.0,0.0,97,0.00,,,0.00,Wunderground v.1.15,2013-09-08 03:35:00,
2013-09-07 23:40:00,64.8,64.2,29.95,NNE,17,0.0,0.0,98,0.00,,,0.00,Wunderground v.1.15,2013-09-08 03:40:00,
2013-09-07 23:50:00,64.7,64.1,29.95,NNE,17,0.0,0.0,98,0.00,,,0.00,Wunderground v.1.15,2013-09-08 03:50:00,
2013-09-07 23:55:00,64.6,64.0,29.95,NNE,17,0.0,0.0,98,0.00,,,0.00,Wunderground v.1.15,2013-09-08 03:55:00,